Tracking 28790 objects as of 19-Apr-2024
HD Live streaming from Space Station
objects crossing your sky now

FENGYUN 1C DEB

Track FENGYUN 1C DEB now!
10-day predictions


NORAD ID: 30562
Int'l Code: 1999-025ALC
Perigee: 797.3 km
Apogee: 892.7 km
Inclination: 98.8 °
Period: 101.7 minutes
Semi major axis: 7216 km
RCS: 0.043 m2 (small)
Launch date: May 10, 1999
Source: People's Republic of China (PRC)
Launch site: Taiyaun Space Center, China (TSC)

Note: This is SATELLITE DEBRIS
Your satellite tracking list
Your tracking list is empty




NASA's NSSDC Master Catalog

Two Line Element Set (TLE):
1 30562U 99025ALC 24109.74449569  .00007284  00000-0  36141-2 0  9993
2 30562  98.8015 175.8231 0066095 198.1971 280.3197 14.16298657884412
Source of the keplerian elements: AFSPC